Retour au catalogue

COSMOS 2457

GLONASS

ActifNavigationMEO
NORAD 36112·PAYLOAD·🇷🇺 Russia

Lancé Dec 14, 2009 depuis Baikonur Cosmodrome

Loading…

Prochains Passages (prochaines 24 heures)

TLE

FraisSource: Space-Track

Époque: Sep 13, 2026, 20:19 UTC

1 36112U 09070B   26256.84679212 -.00000013  00000-0  00000-0 0  9994
2 36112  65.0539  67.7926 0005887 131.5788 228.2888  2.13100834130319

Suivez COSMOS 2457 en temps réel avec AllMySat

Download on the App Store